Date String (YYYY-MM-DD hh:mm:ss) UTC,Instrument flags,absolute air pressure of the measurement (hPa),sample flow rate (lpm),inlet stack bypass flow (lpm),air temperature of the measurement (°C),ambient temperature measured by the external sensor (°C),aerosol sample conditioner tube jacket temperature (°C),OPC LED temperature (°C),internal box temperature (°C),relative humidity of the measurement (%),span deviation,mass concentration of particles derived from Lorenz-Mie calculation of OPC scattering (μg/m³),mass concentration of particles derived from Lorenz-Mie calculation of OPC scattering (μg/m³),mass concentration of particles derived from Lorenz-Mie calculation of OPC scattering (μg/m³)
DateTimeUTC,F1_M11,P_M11,Q1_M11,Q2_M11,T1_M11,T2_M11,T3_M11,T4_M11,T5_M11,U1_M11,ZSPAN_M11,X2_M11,X0_M11,X1_M11
2023-09-04 14:00:00,SystemResetWarning,0825.1,5.00,000.00,028.3,026.1,000.0,036.8,029.7,30.9,0000.0,0001.65,0002.50,0001.33
2023-09-04 14:01:00,SystemResetWarning,0825.1,5.00,000.00,028.3,026.4,000.0,036.8,029.8,30.4,0000.0,0001.68,0002.61,0001.33
2023-09-04 14:02:00,SystemResetWarning,0825.1,4.99,000.00,028.3,026.6,000.0,036.8,029.9,31.0,0000.0,0001.70,0002.73,0001.33
2023-09-04 14:03:00,SystemResetWarning,0825.1,5.00,000.00,028.3,026.8,000.0,036.8,029.9,30.8,0000.0,0001.73,0002.79,0001.33
2023-09-04 14:04:00,SystemResetWarning,0825.1,5.00,000.00,028.4,026.9,000.0,036.8,030.0,30.7,0000.0,0001.76,0002.86,0001.34
2023-09-04 14:05:00,SystemResetWarning,0825.1,5.00,000.00,028.4,027.1,000.0,036.8,030.1,31.2,0000.0,0001.75,0002.83,0001.35
2023-09-04 14:06:00,SystemResetWarning,0825.1,5.01,000.00,028.5,027.2,000.0,036.8,030.1,32.5,0000.0,0001.73,0002.80,0001.34
2023-09-04 14:07:00,SystemResetWarning,0825.1,4.99,000.00,028.5,027.3,000.0,036.9,030.1,32.9,0000.0,0001.75,0002.88,0001.33
2023-09-04 14:08:00,SystemResetWarning,0825.1,5.00,000.00,028.5,027.4,000.0,036.9,030.2,32.1,0000.0,0001.78,0002.96,0001.33
2023-09-04 14:09:00,SystemResetWarning,0825.1,5.00,000.00,028.6,027.5,000.0,036.9,030.2,32.5,0000.0,0001.80,0003.06,0001.33
2023-09-04 14:10:00,SystemResetWarning,0825.0,5.00,000.00,028.6,027.6,000.0,036.9,030.3,31.9,0000.0,0001.81,0003.15,0001.33
2023-09-04 14:11:00,SystemResetWarning,0825.0,5.00,000.00,028.6,027.6,000.0,036.9,030.3,31.2,0000.0,0001.81,0003.13,0001.34
2023-09-04 14:12:00,SystemResetWarning,0824.9,5.01,000.00,028.7,027.7,000.0,037.0,030.3,31.3,0000.0,0001.76,0003.06,0001.34
2023-09-04 14:13:00,SystemResetWarning,0824.9,4.99,000.00,028.7,027.6,000.0,037.0,030.4,31.4,0000.0,0001.72,0002.92,0001.34
2023-09-04 14:14:00,SystemResetWarning,0824.9,5.00,000.00,028.7,026.3,000.0,036.9,029.9,31.5,0000.0,0001.73,0002.95,0001.35
2023-09-04 14:15:00,SystemResetWarning,0824.9,5.01,000.00,028.5,025.1,000.0,036.8,029.6,31.8,0000.0,0001.69,0002.85,0001.34
2023-09-04 14:16:00,SystemResetWarning,0824.9,5.00,000.00,028.4,024.9,000.0,036.8,029.5,32.1,0000.0,0001.72,0003.18,0001.34
2023-09-04 14:17:00,SystemResetWarning,0824.9,5.01,000.00,028.3,025.1,000.0,036.8,029.5,32.7,0000.0,0001.78,0004.04,0001.35
2023-09-04 14:18:00,SystemResetWarning,0824.9,5.00,000.00,028.3,025.4,000.0,036.8,029.6,32.6,0000.0,0001.78,0003.93,0001.37
2023-09-04 14:19:00,SystemResetWarning,0824.9,5.00,000.00,028.3,025.8,000.0,036.8,029.7,32.5,0000.0,0001.76,0003.86,0001.38
2023-09-04 14:20:00,SystemResetWarning,0824.9,5.00,000.00,028.3,026.1,000.0,036.8,029.8,32.7,0000.0,0001.76,0003.75,0001.38
2023-09-04 14:21:00,SystemResetWarning,0824.9,5.00,000.00,028.3,026.4,000.0,036.8,029.9,32.3,0000.0,0001.76,0003.72,0001.38
2023-09-04 14:22:00,SystemResetWarning,0824.9,5.00,000.00,028.4,026.7,000.0,036.8,029.9,32.5,0000.0,0001.76,0003.64,0001.39
2023-09-04 14:23:00,SystemResetWarning,0824.9,5.01,000.00,028.4,026.9,000.0,036.8,030.0,32.1,0000.0,0001.80,0003.64,0001.39
2023-09-04 14:24:00,SystemResetWarning,0824.9,5.00,000.00,028.4,027.0,000.0,036.8,030.0,32.3,0000.0,0001.80,0003.67,0001.39
2023-09-04 14:25:00,SystemResetWarning,0824.9,5.00,000.00,028.4,027.2,000.0,036.8,030.1,32.8,0000.0,0001.81,0003.76,0001.39
2023-09-04 14:26:00,SystemResetWarning,0824.9,5.00,000.00,028.5,027.3,000.0,036.8,030.1,32.6,0000.0,0001.84,0003.92,0001.40
2023-09-04 14:27:00,SystemResetWarning,0824.9,5.00,000.00,028.5,027.4,000.0,036.9,030.2,32.7,0000.0,0001.83,0003.65,0001.40
2023-09-04 14:28:00,SystemResetWarning,0824.9,5.00,000.00,028.6,027.5,000.0,036.9,030.2,32.6,0000.0,0001.79,0002.79,0001.40
2023-09-04 14:29:00,SystemResetWarning,0824.9,5.00,000.00,028.6,027.6,000.0,036.9,030.3,32.2,0000.0,0001.78,0002.79,0001.40
2023-09-04 14:30:00,SystemResetWarning,0824.9,4.98,000.00,028.6,027.0,000.0,036.9,030.1,32.6,0000.0,0001.78,0002.79,0001.41
2023-09-04 14:31:00,SystemResetWarning,0824.9,5.00,000.00,028.5,025.5,000.0,036.8,029.7,33.3,0000.0,0001.80,0002.79,0001.41
2023-09-04 14:32:00,SystemResetWarning,0824.9,5.01,000.00,028.4,024.8,000.0,036.8,029.6,33.2,0000.0,0001.81,0002.70,0001.42
2023-09-04 14:33:00,SystemResetWarning,0824.8,5.01,000.00,028.3,024.9,000.0,036.7,029.5,32.9,0000.0,0001.84,0002.75,0001.43
2023-09-04 14:34:00,SystemResetWarning,0824.8,5.00,000.00,028.2,025.2,000.0,036.7,029.5,33.3,0000.0,0001.84,0003.35,0001.44
2023-09-04 14:35:00,SystemResetWarning,0824.8,4.99,000.00,028.2,025.6,000.0,036.7,029.6,33.9,0000.0,0001.83,0003.80,0001.45
2023-09-04 14:36:00,SystemResetWarning,0824.8,5.00,000.00,028.2,025.9,000.0,036.7,029.7,34.1,0000.0,0001.84,0003.77,0001.44
2023-09-04 14:37:00,SystemResetWarning,0824.7,5.00,000.00,028.3,026.2,000.0,036.7,029.8,33.9,0000.0,0001.84,0003.68,0001.44
2023-09-04 14:38:00,SystemResetWarning,0824.7,5.01,000.00,028.3,026.5,000.0,036.8,029.9,33.7,0000.0,0001.89,0003.82,0001.45
2023-09-04 14:39:00,SystemResetWarning,0824.7,5.00,000.00,028.3,026.7,000.0,036.8,029.9,33.7,0000.0,0001.92,0003.87,0001.44
2023-09-04 14:40:00,SystemResetWarning,0824.7,5.00,000.00,028.4,026.9,000.0,036.8,030.0,33.8,0000.0,0001.95,0004.01,0001.45
2023-09-04 14:41:00,SystemResetWarning,0824.8,5.00,000.00,028.4,027.1,000.0,036.8,030.0,33.3,0000.0,0001.97,0004.09,0001.45
2023-09-04 14:42:00,SystemResetWarning,0824.7,5.00,000.00,028.4,027.2,000.0,036.8,030.1,33.5,0000.0,0001.99,0004.20,0001.45
2023-09-04 14:43:00,SystemResetWarning,0824.7,5.01,000.00,028.5,027.4,000.0,036.8,030.2,33.4,0000.0,0002.00,0004.22,0001.46
2023-09-04 14:44:00,SystemResetWarning,0824.7,5.00,000.00,028.5,027.5,000.0,036.8,030.2,33.4,0000.0,0002.01,0004.20,0001.46
2023-09-04 14:45:00,SystemResetWarning,0824.7,4.99,000.00,028.6,027.4,000.0,036.8,030.2,33.6,0000.0,0002.05,0003.96,0001.48
2023-09-04 14:46:00,SystemResetWarning,0824.7,4.99,000.00,028.5,026.2,000.0,036.8,029.8,34.2,0000.0,0002.12,0003.63,0001.50
2023-09-04 14:47:00,SystemResetWarning,0824.7,5.03,000.00,028.4,025.1,000.0,036.7,029.6,34.7,0000.0,0002.21,0005.38,0001.52
2023-09-04 14:48:00,SystemResetWarning,0824.7,4.98,000.00,028.4,024.9,000.0,036.7,029.5,34.1,0000.0,0002.26,0006.01,0001.57
2023-09-04 14:49:00,SystemResetWarning,0824.7,5.00,000.00,028.4,025.2,000.0,036.7,029.5,33.6,0000.0,0002.27,0006.19,0001.60
2023-09-04 14:50:00,SystemResetWarning,0824.6,5.01,000.00,028.4,025.5,000.0,036.7,029.6,34.6,0000.0,0002.33,0006.37,0001.64
2023-09-04 14:51:00,SystemResetWarning,0824.7,5.00,000.00,028.4,025.9,000.0,036.7,029.7,34.4,0000.0,0002.41,0006.60,0001.66
2023-09-04 14:52:00,SystemResetWarning,0824.6,4.98,000.00,028.5,026.2,000.0,036.8,029.9,35.2,0000.0,0002.48,0006.91,0001.69
2023-09-04 14:53:00,SystemResetWarning,0824.7,5.02,000.00,028.7,026.5,000.0,036.8,030.0,34.5,0000.0,0002.49,0006.88,0001.72
2023-09-04 14:54:00,SystemResetWarning,0824.7,4.99,000.00,028.9,026.7,000.0,036.8,030.1,34.2,0000.0,0002.52,0006.92,0001.74
2023-09-04 14:55:00,SystemResetWarning,0824.7,5.01,000.00,029.0,026.9,000.0,036.8,030.2,34.4,0000.0,0002.53,0007.12,0001.77
2023-09-04 14:56:00,SystemResetWarning,0824.7,4.99,000.00,029.1,027.1,000.0,036.9,030.2,34.2,0000.0,0002.52,0007.50,0001.78
2023-09-04 14:57:00,SystemResetWarning,0824.7,4.99,000.00,029.1,027.3,000.0,037.0,030.3,34.1,0000.0,0002.51,0007.38,0001.79
2023-09-04 14:58:00,SystemResetWarning,0824.7,5.00,000.00,029.2,027.4,000.0,037.0,030.3,34.9,0000.0,0002.47,0005.86,0001.79
2023-09-04 14:59:00,SystemResetWarning,0824.7,5.00,000.00,029.3,026.6,000.0,037.0,030.1,33.6,0000.0,0002.47,0005.47,0001.80
